#timestamp,LO_Frequency,Hit,StdDev 
1556971215.2,286046999.2,N
1556971235.9,286046999.6,N
1556971255.7,286046999.2,N
1556971275.6,286046995.3,N
1556971295.4,286046993.8,N
1556971315.3,286046994.0,N
1556971335.1,286046994.5,N
1556971336.0,286046994.5,N
1556971355.8,286046992.9,N
1556971375.7,286046992.2,N
1556971395.5,286046991.9,N
1556971415.3,286046992.7,N
1556971435.2,286046992.1,N
1556971455.0,286046992.2,N
1556971455.9,286046992.2,N
1556971475.8,286046992.2,N
1556971495.6,286046992.4,N
1556971515.4,286046991.9,N
1556971535.3,286046990.5,N
1556971555.1,286046992.9,N
1556971575.8,286046990.5,N
1556971595.7,286046990.2,N
1556971615.8,286046991.0,N
1556971635.6,286046991.1,N
1556971655.4,286046990.2,N
1556971675.3,286046994.8,N
1556971695.1,286046994.5,N
1556971715.8,286046992.6,N
1556971735.7,286046991.8,N
1556971755.5,286046992.1,Y
1556971775.4,286047001.2,P
1556971795.2,286046999.8,N
1556971815.0,286047001.0,N
1556971815.9,286047001.0,N
1556971835.8,286046999.7,N
1556971855.6,286047001.2,N
1556971875.4,286047001.0,N
1556971895.3,286047001.1,N
1556971915.1,286046998.4,N
1556971935.9,286046999.9,N
1556971955.7,286046999.9,N
1556971975.5,286047001.2,N
1556971995.4,286046998.8,N
1556972015.2,286046999.6,N
1556972035.0,286046999.5,N
1556972035.9,286046999.5,N
1556972055.8,286046997.5,N
1556972075.6,286046997.6,N
1556972095.5,286046997.6,N
1556972115.3,286046995.0,N
1556972135.1,286046997.2,N
1556972155.9,286046999.0,N
1556972175.7,286046998.1,N
1556972195.5,286046998.3,N
1556972215.4,286046999.3,N
1556972235.2,286046996.9,N
1556972255.1,286046997.2,N
1556972256.0,286046997.2,N
1556972275.8,286047001.2,N
1556972295.6,286047000.6,N
1556972315.5,286046998.3,N
1556972335.3,286046999.5,N
1556972355.1,286046996.5,N
1556972375.9,286046997.0,N
1556972395.7,286047000.5,N
1556972415.6,286046998.5,N
1556972435.4,286046999.9,N
1556972455.2,286046998.5,N
1556972475.1,286046999.1,N
1556972476.0,286046999.1,N
1556972495.8,286046999.4,N
1556972515.6,286046997.2,N
1556972535.5,286046997.3,N
1556972555.3,286046999.0,N
1556972575.2,286046996.6,N
1556972595.9,286046999.6,N
1556972615.7,286046998.3,N
1556972635.6,286046998.4,N
1556972655.4,286047001.2,N
1556972675.2,286046998.8,N
1556972695.1,286047000.8,N
1556972696.0,286047000.8,N
1556972715.8,286046996.9,N
1556972735.7,286046997.1,N
1556972755.5,286046997.8,N
1556972775.3,286046996.8,N
1556972795.2,286046998.6,N
1556972815.9,286046999.2,N
1556972835.7,286046996.7,N
1556972855.6,286046997.2,N
1556972875.4,286046999.0,N
1556972895.2,286046998.6,N
1556972915.1,286046998.4,N
1556972916.0,286046998.4,N
1556972935.8,286047001.2,N
1556972955.9,286047000.7,N
1556972975.7,286046997.2,N
1556972995.6,286046996.7,N
1556973015.4,286046998.3,N
1556973035.2,286047000.5,N
1556973055.1,286046999.7,N
1556973056.0,286046999.7,N
1556973075.8,286047000.9,N
1556973095.7,286046999.8,N
1556973115.5,286047000.7,N
1556973135.3,286047000.9,N
1556973155.2,286047000.5,N
1556973175.0,286047002.7,N
1556973175.9,286047002.7,N
1556973195.7,286047002.8,N
1556973215.6,286046998.1,N
1556973235.4,286046997.2,N
1556973255.3,286046999.1,N
1556973275.1,286047000.8,N
1556973276.0,286047000.8,N
1556973295.8,286046998.6,N
1556973315.7,286047000.2,N
1556973335.5,286047000.5,N
1556973355.3,286047001.1,N
1556973375.2,286046999.0,N
1556973395.0,286046996.7,N
1556973395.9,286046996.7,N
1556973415.8,286046999.4,N
1556973435.6,286046998.8,N
1556973455.7,286047000.3,N
1556973475.5,286047001.2,N
1556973495.3,286047000.5,N
1556973515.2,286047002.6,N
1556973535.0,286047002.4,N
1556973535.9,286047002.4,N
1556973555.8,286047002.7,N
1556973575.6,286047000.1,N
1556973595.4,286047000.1,N
1556973615.3,286047000.6,N
1556973635.1,286046998.6,N
1556973655.8,286046999.0,N
1556973675.7,286046998.6,N
1556973695.5,286046998.2,N
1556973715.3,286046998.8,N
1556973735.2,286047001.2,N
1556973755.0,286047001.7,N
1556973755.9,286047001.7,N
1556973775.8,286047003.9,N
1556973795.6,286047001.5,N
1556973815.4,286047002.7,N
1556973835.3,286047001.9,N
1556973855.1,286047002.0,N
1556973875.8,286047002.0,N
1556973895.7,286047002.2,N
1556973915.5,286047002.4,N
1556973935.4,286047000.0,N
1556973955.2,286046998.6,N
1556973975.0,286047000.7,N
1556973975.9,286047000.7,N
1556973995.8,286047002.5,N
1556974015.6,286047002.1,N
1556974035.5,286047001.5,N
1556974055.3,286047001.9,N
1556974075.1,286047002.4,N
1556974095.9,286047001.5,N
1556974115.7,286047001.3,N
1556974135.6,286047003.9,N
1556974155.4,286047002.6,N
1556974175.2,286047003.9,N
1556974195.1,286047001.6,N
1556974196.0,286047001.6,N
1556974215.8,286047002.0,N
1556974235.6,286047000.3,N
1556974255.5,286046998.8,N
1556974275.3,286047000.5,N
1556974295.1,286047000.1,N
1556974315.9,286046999.9,N
1556974335.7,286046999.8,N
1556974355.6,286047000.4,N
1556974375.4,286047000.5,N
1556974395.2,286046998.2,N
1556974415.1,286047001.2,N
1556974416.0,286047001.2,N
1556974435.8,286046999.3,N
1556974455.6,286046998.6,N
1556974475.5,286047000.9,N
1556974495.3,286047002.4,N
1556974515.2,286047001.8,N
1556974535.9,286047002.5,N
1556974555.7,286047000.5,N
1556974575.6,286047000.4,N
1556974595.4,286046998.9,N
1556974615.2,286046998.8,N
1556974635.1,286047000.6,N
1556974636.0,286047000.6,N
1556974655.8,286046998.6,N
1556974675.7,286047002.3,N
1556974695.5,286046999.8,N
1556974715.3,286046999.8,N
1556974735.2,286046998.1,N
1556974755.0,286046997.0,N
1556974755.9,286046997.0,N
1556974775.8,286046997.2,N
1556974795.6,286046996.7,N
